Time,TemperatureF,DewpointF,PressureIn,WindDirection,WindDirectionDegrees,WindSpeedMPH,WindSpeedGustMPH,Humidity,HourlyPrecipIn,Conditions,Clouds,dailyrainin,SolarRadiationWatts/m^2,SoftwareType,DateUTC
2013-02-19 00:00:00,26.2,8.2,30.22,SSE,163,0.0,0.0,46,0.00,,,0.00,0,Wunderground v.1.15,2013-02-19 05:00:00,
2013-02-19 00:01:00,26.2,8.2,30.22,SSE,164,0.0,0.0,46,0.00,,,0.00,0,Wunderground v.1.15,2013-02-19 05:01:00,
2013-02-19 00:02:00,26.4,8.4,30.22,SSE,164,0.0,0.0,46,0.00,,,0.00,0,Wunderground v.1.15,2013-02-19 05:02:00,
2013-02-19 00:06:00,26.3,7.8,30.22,SSE,164,0.0,0.0,45,0.00,,,0.00,0,Wunderground v.1.15,2013-02-19 05:06:00,
2013-02-19 00:12:00,26.7,8.2,30.22,SSE,163,1.0,1.0,45,0.00,,,0.00,0,Wunderground v.1.15,2013-02-19 05:12:00,
2013-02-19 00:17:00,26.8,8.3,30.22,SSE,163,1.0,1.0,45,0.00,,,0.00,0,Wunderground v.1.15,2013-02-19 05:17:00,
2013-02-19 00:24:00,27.4,8.3,30.22,SSE,164,0.0,1.0,44,0.00,,,0.00,0,Wunderground v.1.15,2013-02-19 05:24:00,
2013-02-19 00:29:00,27.5,8.4,30.22,SSE,164,0.0,1.0,44,0.00,,,0.00,0,Wunderground v.1.15,2013-02-19 05:29:00,
2013-02-19 00:35:00,27.7,8.6,30.21,SSE,164,0.0,2.0,44,0.00,,,0.00,0,Wunderground v.1.15,2013-02-19 05:35:00,
2013-02-19 00:41:00,28.0,8.4,30.21,SSE,164,1.0,1.0,43,0.00,,,0.00,0,Wunderground v.1.15,2013-02-19 05:41:00,
2013-02-19 00:46:00,28.0,8.9,30.21,SE,134,0.0,2.0,44,0.00,,,0.00,0,Wunderground v.1.15,2013-02-19 05:46:00,
2013-02-19 00:52:00,27.8,8.7,30.20,SE,134,0.0,0.0,44,0.00,,,0.00,0,Wunderground v.1.15,2013-02-19 05:52:00,
2013-02-19 00:57:00,27.7,8.6,30.20,SE,134,0.0,0.0,44,0.00,,,0.00,0,Wunderground v.1.15,2013-02-19 05:57:00,
2013-02-19 01:02:00,27.5,8.4,30.20,SE,134,0.0,1.0,44,0.00,,,0.00,0,Wunderground v.1.15,2013-02-19 06:02:00,
2013-02-19 01:07:00,27.9,9.3,30.20,SE,138,2.0,5.0,45,0.00,,,0.00,0,Wunderground v.1.15,2013-02-19 06:07:00,
2013-02-19 01:13:00,28.3,9.1,30.20,SE,138,0.0,1.0,44,0.00,,,0.00,0,Wunderground v.1.15,2013-02-19 06:13:00,
2013-02-19 01:19:00,28.2,9.0,30.19,SE,139,0.0,1.0,44,0.00,,,0.00,0,Wunderground v.1.15,2013-02-19 06:19:00,
2013-02-19 01:24:00,28.2,9.0,30.19,SE,139,0.0,2.0,44,0.00,,,0.00,0,Wunderground v.1.15,2013-02-19 06:24:00,
2013-02-19 01:29:00,28.4,9.2,30.18,SE,140,0.0,2.0,44,0.00,,,0.00,0,Wunderground v.1.15,2013-02-19 06:29:00,
2013-02-19 01:35:00,28.3,9.1,30.18,SE,140,0.0,0.0,44,0.00,,,0.00,0,Wunderground v.1.15,2013-02-19 06:35:00,
2013-02-19 01:40:00,28.3,9.1,30.18,SE,140,0.0,0.0,44,0.00,,,0.00,0,Wunderground v.1.15,2013-02-19 06:40:00,
2013-02-19 01:45:00,28.3,9.1,30.18,SE,140,0.0,0.0,44,0.00,,,0.00,0,Wunderground v.1.15,2013-02-19 06:45:00,
2013-02-19 01:51:00,28.3,9.1,30.18,SE,140,1.0,1.0,44,0.00,,,0.00,0,Wunderground v.1.15,2013-02-19 06:51:00,
2013-02-19 01:56:00,28.5,9.8,30.18,SE,140,0.0,1.0,45,0.00,,,0.00,0,Wunderground v.1.15,2013-02-19 06:56:00,
2013-02-19 02:01:00,28.6,9.9,30.17,SE,140,2.0,2.0,45,0.00,,,0.00,0,Wunderground v.1.15,2013-02-19 07:01:00,
2013-02-19 02:06:00,29.0,10.8,30.17,SE,139,0.0,3.0,46,0.00,,,0.00,0,Wunderground v.1.15,2013-02-19 07:06:00,
2013-02-19 02:11:00,29.1,10.9,30.16,SE,140,0.0,1.0,46,0.00,,,0.00,0,Wunderground v.1.15,2013-02-19 07:11:00,
2013-02-19 02:16:00,28.9,10.7,30.16,SE,140,0.0,2.0,46,0.00,,,0.00,0,Wunderground v.1.15,2013-02-19 07:16:00,
2013-02-19 02:21:00,29.0,11.3,30.16,SE,139,0.0,3.0,47,0.00,,,0.00,0,Wunderground v.1.15,2013-02-19 07:21:00,
2013-02-19 02:26:00,29.1,11.8,30.15,SE,140,0.0,3.0,48,0.00,,,0.00,0,Wunderground v.1.15,2013-02-19 07:26:00,
2013-02-19 02:31:00,29.3,12.0,30.15,SE,140,0.0,1.0,48,0.00,,,0.00,0,Wunderground v.1.15,2013-02-19 07:31:00,
2013-02-19 02:36:00,29.5,12.7,30.15,SE,140,0.0,3.0,49,0.00,,,0.00,0,Wunderground v.1.15,2013-02-19 07:36:00,
2013-02-19 02:41:00,29.6,12.8,30.15,SE,140,0.0,1.0,49,0.00,,,0.00,0,Wunderground v.1.15,2013-02-19 07:41:00,
2013-02-19 02:46:00,29.5,13.1,30.15,SE,140,0.0,1.0,50,0.00,,,0.00,0,Wunderground v.1.15,2013-02-19 07:46:00,
2013-02-19 02:51:00,29.7,13.3,30.15,SE,140,2.0,2.0,50,0.00,,,0.00,0,Wunderground v.1.15,2013-02-19 07:51:00,
2013-02-19 02:56:00,29.4,13.5,30.14,SE,140,0.0,2.0,51,0.00,,,0.00,0,Wunderground v.1.15,2013-02-19 07:56:00,
2013-02-19 03:01:00,29.1,13.2,30.14,SE,140,0.0,0.0,51,0.00,,,0.00,0,Wunderground v.1.15,2013-02-19 08:01:00,
2013-02-19 03:06:00,29.3,13.8,30.14,SE,140,0.0,1.0,52,0.00,,,0.00,0,Wunderground v.1.15,2013-02-19 08:06:00,
2013-02-19 03:11:00,29.4,13.9,30.14,SE,140,0.0,0.0,52,0.00,,,0.00,0,Wunderground v.1.15,2013-02-19 08:11:00,
2013-02-19 03:16:00,29.3,13.8,30.13,SE,140,0.0,1.0,52,0.00,,,0.00,0,Wunderground v.1.15,2013-02-19 08:16:00,
2013-02-19 03:21:00,29.3,14.3,30.14,SE,140,0.0,0.0,53,0.00,,,0.00,0,Wunderground v.1.15,2013-02-19 08:21:00,
2013-02-19 03:26:00,29.2,14.2,30.13,SE,140,1.0,2.0,53,0.00,,,0.00,0,Wunderground v.1.15,2013-02-19 08:26:00,
2013-02-19 03:31:00,29.2,14.2,30.13,SE,140,0.0,1.0,53,0.00,,,0.00,0,Wunderground v.1.15,2013-02-19 08:31:00,
2013-02-19 03:36:00,29.3,14.7,30.13,SE,139,0.0,3.0,54,0.00,,,0.00,0,Wunderground v.1.15,2013-02-19 08:36:00,
2013-02-19 03:41:00,29.1,14.9,30.13,SE,140,0.0,0.0,55,0.00,,,0.00,0,Wunderground v.1.15,2013-02-19 08:41:00,
2013-02-19 03:46:00,29.2,15.0,30.12,SE,140,0.0,1.0,55,0.00,,,0.00,0,Wunderground v.1.15,2013-02-19 08:46:00,
2013-02-19 03:51:00,29.3,15.1,30.13,SE,140,0.0,0.0,55,0.00,,,0.00,0,Wunderground v.1.15,2013-02-19 08:51:00,
2013-02-19 03:56:00,29.4,15.6,30.12,SE,140,0.0,1.0,56,0.00,,,0.00,0,Wunderground v.1.15,2013-02-19 08:56:00,
2013-02-19 04:01:00,29.4,15.6,30.12,SE,140,0.0,0.0,56,0.00,,,0.00,0,Wunderground v.1.15,2013-02-19 09:01:00,
2013-02-19 04:06:00,29.4,16.0,30.13,SE,139,0.0,1.0,57,0.00,,,0.00,0,Wunderground v.1.15,2013-02-19 09:06:00,
2013-02-19 04:11:00,29.8,16.8,30.13,SE,140,2.0,2.0,58,0.00,,,0.00,0,Wunderground v.1.15,2013-02-19 09:11:00,
2013-02-19 04:16:00,30.1,17.1,30.13,SE,140,1.0,3.0,58,0.00,,,0.00,0,Wunderground v.1.15,2013-02-19 09:16:00,
2013-02-19 04:21:00,30.6,18.0,30.12,SE,146,0.0,5.0,59,0.00,,,0.00,0,Wunderground v.1.15,2013-02-19 09:21:00,
2013-02-19 04:26:00,30.7,18.1,30.12,SE,145,0.0,5.0,59,0.00,,,0.00,0,Wunderground v.1.15,2013-02-19 09:26:00,
2013-02-19 04:32:00,30.7,18.1,30.12,SE,146,0.0,2.0,59,0.00,,,0.00,0,Wunderground v.1.15,2013-02-19 09:32:00,
2013-02-19 04:37:00,30.5,17.9,30.12,SE,146,1.0,2.0,59,0.00,,,0.00,0,Wunderground v.1.15,2013-02-19 09:37:00,
2013-02-19 04:42:00,30.8,18.5,30.12,SE,146,0.0,4.0,60,0.00,,,0.00,0,Wunderground v.1.15,2013-02-19 09:42:00,
2013-02-19 04:47:00,31.0,18.7,30.11,South,190,1.0,4.0,60,0.00,,,0.00,0,Wunderground v.1.15,2013-02-19 09:47:00,
2013-02-19 04:52:00,31.5,19.6,30.11,South,182,0.0,4.0,61,0.00,,,0.00,0,Wunderground v.1.15,2013-02-19 09:52:00,
2013-02-19 04:57:00,31.7,19.8,30.11,South,180,0.0,6.0,61,0.00,,,0.00,0,Wunderground v.1.15,2013-02-19 09:57:00,
2013-02-19 05:02:00,31.8,19.9,30.10,SSW,192,0.0,6.0,61,0.00,,,0.00,0,Wunderground v.1.15,2013-02-19 10:02:00,
2013-02-19 05:07:00,32.0,19.7,30.10,SSW,193,0.0,6.0,60,0.00,,,0.00,0,Wunderground v.1.15,2013-02-19 10:07:00,
2013-02-19 05:12:00,31.9,19.6,30.10,South,184,1.0,2.0,60,0.00,,,0.00,0,Wunderground v.1.15,2013-02-19 10:12:00,
2013-02-19 05:17:00,32.2,20.2,30.10,South,183,1.0,3.0,61,0.00,,,0.00,0,Wunderground v.1.15,2013-02-19 10:17:00,
2013-02-19 05:22:00,32.0,19.7,30.09,South,182,2.0,2.0,60,0.00,,,0.00,0,Wunderground v.1.15,2013-02-19 10:22:00,
2013-02-19 05:27:00,31.9,20.0,30.09,South,182,0.0,2.0,61,0.00,,,0.00,0,Wunderground v.1.15,2013-02-19 10:27:00,
2013-02-19 05:32:00,32.0,19.7,30.09,South,182,0.0,1.0,60,0.00,,,0.00,0,Wunderground v.1.15,2013-02-19 10:32:00,
2013-02-19 05:37:00,31.8,19.5,30.09,South,183,0.0,1.0,60,0.00,,,0.00,0,Wunderground v.1.15,2013-02-19 10:37:00,
2013-02-19 05:42:00,31.5,19.6,30.09,South,182,0.0,2.0,61,0.00,,,0.00,0,Wunderground v.1.15,2013-02-19 10:42:00,
2013-02-19 05:47:00,31.5,19.6,30.08,South,182,0.0,2.0,61,0.00,,,0.00,0,Wunderground v.1.15,2013-02-19 10:47:00,
2013-02-19 05:52:00,31.3,19.4,30.08,South,183,0.0,2.0,61,0.00,,,0.00,0,Wunderground v.1.15,2013-02-19 10:52:00,
2013-02-19 05:57:00,31.2,19.3,30.08,South,182,0.0,2.0,61,0.00,,,0.00,0,Wunderground v.1.15,2013-02-19 10:57:00,
2013-02-19 06:02:00,31.1,19.2,30.08,South,182,0.0,1.0,61,0.00,,,0.00,0,Wunderground v.1.15,2013-02-19 11:02:00,
2013-02-19 06:07:00,31.1,19.6,30.08,South,182,1.0,3.0,62,0.00,,,0.00,0,Wunderground v.1.15,2013-02-19 11:07:00,
2013-02-19 06:12:00,31.2,19.7,30.08,South,182,0.0,1.0,62,0.00,,,0.00,0,Wunderground v.1.15,2013-02-19 11:12:00,
2013-02-19 06:17:00,31.3,19.8,30.08,South,182,1.0,3.0,62,0.00,,,0.00,0,Wunderground v.1.15,2013-02-19 11:17:00,
2013-02-19 06:22:00,31.3,19.8,30.08,South,182,0.0,0.0,62,0.00,,,0.00,0,Wunderground v.1.15,2013-02-19 11:22:00,
2013-02-19 06:27:00,31.4,20.2,30.08,SSE,148,1.0,7.0,63,0.00,,,0.00,0,Wunderground v.1.15,2013-02-19 11:27:00,
2013-02-19 06:32:00,32.0,20.8,30.07,SSE,152,4.0,5.0,63,0.00,,,0.00,0,Wunderground v.1.15,2013-02-19 11:32:00,
2013-02-19 06:37:00,32.6,21.0,30.07,SSE,152,1.0,5.0,62,0.00,,,0.00,0,Wunderground v.1.15,2013-02-19 11:37:00,
2013-02-19 06:42:00,32.9,21.3,30.07,SSE,152,0.0,2.0,62,0.00,,,0.00,0,Wunderground v.1.15,2013-02-19 11:42:00,
2013-02-19 06:47:00,32.8,21.2,30.07,SSE,152,1.0,2.0,62,0.00,,,0.00,0,Wunderground v.1.15,2013-02-19 11:47:00,
2013-02-19 06:52:00,32.8,21.2,30.06,SSE,152,0.0,4.0,62,0.00,,,0.00,0,Wunderground v.1.15,2013-02-19 11:52:00,
2013-02-19 06:57:00,33.1,21.5,30.06,SSE,152,0.0,4.0,62,0.00,,,0.00,0,Wunderground v.1.15,2013-02-19 11:57:00,
2013-02-19 07:02:00,33.3,21.7,30.06,SSE,155,1.0,3.0,62,0.00,,,0.00,0,Wunderground v.1.15,2013-02-19 12:02:00,
2013-02-19 07:07:00,33.6,22.0,30.06,SSE,155,0.0,3.0,62,0.00,,,0.00,0,Wunderground v.1.15,2013-02-19 12:07:00,
2013-02-19 07:12:00,33.8,22.1,30.06,SSE,155,1.0,3.0,62,0.00,,,0.00,0,Wunderground v.1.15,2013-02-19 12:12:00,
2013-02-19 07:17:00,34.3,22.6,30.06,SSE,154,1.0,3.0,62,0.00,,,0.00,0,Wunderground v.1.15,2013-02-19 12:17:00,
2013-02-19 07:22:00,34.7,22.6,30.06,SSE,151,0.0,3.0,61,0.00,,,0.00,0,Wunderground v.1.15,2013-02-19 12:22:00,
2013-02-19 07:27:00,35.0,22.9,30.06,SSW,203,0.0,4.0,61,0.00,,,0.00,0,Wunderground v.1.15,2013-02-19 12:27:00,
2013-02-19 07:32:00,35.5,24.5,30.07,SSE,151,2.0,5.0,64,0.00,,,0.00,0,Wunderground v.1.15,2013-02-19 12:32:00,
2013-02-19 07:37:00,36.1,23.9,30.07,South,175,2.0,7.0,61,0.00,,,0.00,0,Wunderground v.1.15,2013-02-19 12:37:00,
2013-02-19 07:42:00,36.7,24.1,30.07,SSW,196,2.0,8.0,60,0.00,,,0.00,0,Wunderground v.1.15,2013-02-19 12:42:00,
2013-02-19 07:47:00,37.0,24.0,30.07,SSE,164,2.0,8.0,59,0.00,,,0.00,0,Wunderground v.1.15,2013-02-19 12:47:00,
2013-02-19 07:52:00,37.7,24.6,30.07,SSW,196,3.0,9.0,59,0.00,,,0.00,0,Wunderground v.1.15,2013-02-19 12:52:00,
2013-02-19 07:57:00,38.3,24.8,30.06,South,190,4.0,9.0,58,0.00,,,0.00,0,Wunderground v.1.15,2013-02-19 12:57:00,
2013-02-19 08:02:00,38.9,24.5,30.06,SSW,196,3.0,6.0,56,0.00,,,0.00,0,Wunderground v.1.15,2013-02-19 13:02:00,
2013-02-19 08:07:00,39.0,24.2,30.07,South,179,4.0,8.0,55,0.00,,,0.00,0,Wunderground v.1.15,2013-02-19 13:07:00,
2013-02-19 08:12:00,39.3,24.0,30.07,SSE,164,1.0,8.0,54,0.00,,,0.00,0,Wunderground v.1.15,2013-02-19 13:12:00,
2013-02-19 08:17:00,39.6,23.9,30.06,SE,139,1.0,10.0,53,0.00,,,0.00,0,Wunderground v.1.15,2013-02-19 13:17:00,
2013-02-19 08:22:00,39.8,23.1,30.06,SSE,150,3.0,10.0,51,0.00,,,0.00,0,Wunderground v.1.15,2013-02-19 13:22:00,
2013-02-19 08:28:00,40.3,23.1,30.06,SSW,197,2.0,10.0,50,0.00,,,0.00,0,Wunderground v.1.15,2013-02-19 13:28:00,
2013-02-19 08:33:00,40.9,21.7,30.05,SSW,192,4.0,9.0,46,0.00,,,0.00,0,Wunderground v.1.15,2013-02-19 13:33:00,
2013-02-19 08:38:00,41.2,21.4,30.05,South,176,1.0,9.0,45,0.00,,,0.00,0,Wunderground v.1.15,2013-02-19 13:38:00,
2013-02-19 08:43:00,41.6,23.3,30.05,South,180,3.0,8.0,48,0.00,,,0.00,0,Wunderground v.1.15,2013-02-19 13:43:00,
2013-02-19 08:48:00,41.9,23.6,30.05,SSW,205,0.0,9.0,48,0.00,,,0.00,0,Wunderground v.1.15,2013-02-19 13:48:00,
2013-02-19 08:53:00,42.1,23.8,30.04,SSE,166,0.0,4.0,48,0.00,,,0.00,0,Wunderground v.1.15,2013-02-19 13:53:00,
2013-02-19 08:58:00,42.2,23.4,30.04,SSW,202,4.0,8.0,47,0.00,,,0.00,0,Wunderground v.1.15,2013-02-19 13:58:00,
2013-02-19 09:03:00,42.5,23.7,30.03,SSW,210,1.0,4.0,47,0.00,,,0.00,0,Wunderground v.1.15,2013-02-19 14:03:00,
2013-02-19 09:08:00,43.0,24.1,30.03,SE,134,6.0,8.0,47,0.00,,,0.00,0,Wunderground v.1.15,2013-02-19 14:08:00,
2013-02-19 09:13:00,43.3,24.4,30.02,SSE,153,5.0,7.0,47,0.00,,,0.00,0,Wunderground v.1.15,2013-02-19 14:13:00,
2013-02-19 09:18:00,43.6,24.2,30.02,SSE,161,4.0,9.0,46,0.00,,,0.00,0,Wunderground v.1.15,2013-02-19 14:18:00,
2013-02-19 09:23:00,44.3,23.2,30.02,SSW,192,7.0,10.0,43,0.00,,,0.00,0,Wunderground v.1.15,2013-02-19 14:23:00,
2013-02-19 09:28:00,44.9,23.7,30.02,SE,124,2.0,10.0,43,0.00,,,0.00,0,Wunderground v.1.15,2013-02-19 14:28:00,
2013-02-19 09:33:00,45.5,25.4,30.02,South,189,7.0,7.0,45,0.00,,,0.00,0,Wunderground v.1.15,2013-02-19 14:33:00,
2013-02-19 09:38:00,46.0,25.3,30.02,South,176,3.0,13.0,44,0.00,,,0.00,0,Wunderground v.1.15,2013-02-19 14:38:00,
2013-02-19 09:43:00,46.6,25.8,30.01,South,177,6.0,6.0,44,0.00,,,0.00,0,Wunderground v.1.15,2013-02-19 14:43:00,
2013-02-19 09:48:00,47.0,25.6,30.01,South,175,7.0,11.0,43,0.00,,,0.00,0,Wunderground v.1.15,2013-02-19 14:48:00,
2013-02-19 09:53:00,46.4,25.1,30.01,ESE,107,4.0,9.0,43,0.00,,,0.00,0,Wunderground v.1.15,2013-02-19 14:53:00,
2013-02-19 09:58:00,46.3,25.6,30.00,SE,132,4.0,9.0,44,0.00,,,0.00,0,Wunderground v.1.15,2013-02-19 14:58:00,
2013-02-19 10:03:00,46.6,25.8,30.00,SSE,163,2.0,11.0,44,0.00,,,0.00,0,Wunderground v.1.15,2013-02-19 15:03:00,
2013-02-19 10:08:00,46.9,26.1,30.00,South,177,5.0,11.0,44,0.00,,,0.00,0,Wunderground v.1.15,2013-02-19 15:08:00,
2013-02-19 10:13:00,47.6,26.7,30.00,ESE,120,2.0,11.0,44,0.00,,,0.00,0,Wunderground v.1.15,2013-02-19 15:13:00,
2013-02-19 10:18:00,47.9,27.0,30.00,South,170,4.0,11.0,44,0.00,,,0.00,0,Wunderground v.1.15,2013-02-19 15:18:00,
2013-02-19 10:23:00,48.2,27.3,30.00,SE,131,3.0,11.0,44,0.00,,,0.00,0,Wunderground v.1.15,2013-02-19 15:23:00,
2013-02-19 10:28:00,48.4,27.5,29.99,SE,130,9.0,16.0,44,0.00,,,0.00,0,Wunderground v.1.15,2013-02-19 15:28:00,
2013-02-19 10:34:00,48.7,28.3,29.99,SSE,149,3.0,16.0,45,0.00,,,0.00,0,Wunderground v.1.15,2013-02-19 15:34:00,
2013-02-19 10:39:00,48.7,28.8,29.99,SSW,204,3.0,16.0,46,0.00,,,0.00,0,Wunderground v.1.15,2013-02-19 15:39:00,
2013-02-19 10:44:00,49.2,29.3,29.99,SE,143,7.0,12.0,46,0.00,,,0.00,0,Wunderground v.1.15,2013-02-19 15:44:00,
2013-02-19 10:49:00,49.8,29.8,29.99,SSE,162,7.0,14.0,46,0.00,,,0.00,0,Wunderground v.1.15,2013-02-19 15:49:00,
2013-02-19 10:54:00,50.2,30.2,29.99,South,176,3.0,22.0,46,0.00,,,0.00,0,Wunderground v.1.15,2013-02-19 15:54:00,
2013-02-19 10:59:00,51.0,30.9,29.98,SW,228,7.0,22.0,46,0.00,,,0.00,0,Wunderground v.1.15,2013-02-19 15:59:00,
2013-02-19 11:04:00,51.6,30.9,29.98,South,184,14.0,18.0,45,0.00,,,0.00,0,Wunderground v.1.15,2013-02-19 16:04:00,
2013-02-19 11:09:00,51.3,30.7,29.97,SSW,199,3.0,18.0,45,0.00,,,0.00,0,Wunderground v.1.15,2013-02-19 16:09:00,
2013-02-19 11:14:00,51.5,30.8,29.97,SSW,208,3.0,15.0,45,0.00,,,0.00,0,Wunderground v.1.15,2013-02-19 16:14:00,
2013-02-19 11:19:00,51.3,31.2,29.97,South,187,5.0,15.0,46,0.00,,,0.00,0,Wunderground v.1.15,2013-02-19 16:19:00,
2013-02-19 11:24:00,51.3,30.7,29.96,SSW,197,6.0,12.0,45,0.00,,,0.00,0,Wunderground v.1.15,2013-02-19 16:24:00,
2013-02-19 11:29:00,51.4,30.7,29.96,SSW,197,8.0,16.0,45,0.00,,,0.00,0,Wunderground v.1.15,2013-02-19 16:29:00,
2013-02-19 11:35:00,51.1,31.0,29.96,SSE,147,6.0,12.0,46,0.00,,,0.00,0,Wunderground v.1.15,2013-02-19 16:35:00,
2013-02-19 11:40:00,51.3,31.2,29.95,South,181,3.0,6.0,46,0.00,,,0.00,0,Wunderground v.1.15,2013-02-19 16:40:00,
2013-02-19 11:45:00,51.3,31.2,29.95,South,185,5.0,10.0,46,0.00,,,0.00,0,Wunderground v.1.15,2013-02-19 16:45:00,
2013-02-19 11:50:00,51.4,31.3,29.95,SE,139,2.0,2.0,46,0.00,,,0.00,0,Wunderground v.1.15,2013-02-19 16:50:00,
2013-02-19 11:55:00,51.5,31.4,29.94,South,183,1.0,14.0,46,0.00,,,0.00,0,Wunderground v.1.15,2013-02-19 16:55:00,
2013-02-19 12:00:00,51.5,31.4,29.94,South,183,6.0,7.0,46,0.00,,,0.00,0,Wunderground v.1.15,2013-02-19 17:00:00,
2013-02-19 12:05:00,51.7,31.6,29.94,SSW,201,8.0,15.0,46,0.00,,,0.00,0,Wunderground v.1.15,2013-02-19 17:05:00,
2013-02-19 12:10:00,51.7,32.1,29.93,SW,233,5.0,5.0,47,0.00,,,0.00,0,Wunderground v.1.15,2013-02-19 17:10:00,
2013-02-19 12:15:00,51.9,32.3,29.93,WSW,244,7.0,16.0,47,0.00,,,0.00,0,Wunderground v.1.15,2013-02-19 17:15:00,
2013-02-19 12:20:00,52.0,32.4,29.93,SSW,192,4.0,5.0,47,0.00,,,0.00,0,Wunderground v.1.15,2013-02-19 17:20:00,
2013-02-19 12:25:00,52.1,32.5,29.93,SSE,168,3.0,9.0,47,0.00,,,0.00,0,Wunderground v.1.15,2013-02-19 17:25:00,
2013-02-19 12:30:00,52.0,32.4,29.93,South,187,8.0,11.0,47,0.00,,,0.00,0,Wunderground v.1.15,2013-02-19 17:30:00,
2013-02-19 12:35:00,51.9,32.8,29.92,NE,50,2.0,11.0,48,0.00,,,0.00,0,Wunderground v.1.15,2013-02-19 17:35:00,
2013-02-19 12:40:00,52.0,32.9,29.92,South,182,2.0,4.0,48,0.00,,,0.00,0,Wunderground v.1.15,2013-02-19 17:40:00,
2013-02-19 12:45:00,51.8,33.7,29.92,SSW,211,4.0,13.0,50,0.00,,,0.00,0,Wunderground v.1.15,2013-02-19 17:45:00,
2013-02-19 12:50:00,51.3,34.3,29.91,South,184,9.0,10.0,52,0.00,,,0.00,0,Wunderground v.1.15,2013-02-19 17:50:00,
2013-02-19 12:55:00,50.1,35.0,29.91,South,171,5.0,14.0,56,0.00,,,0.00,0,Wunderground v.1.15,2013-02-19 17:55:00,
2013-02-19 13:00:00,49.2,35.5,29.91,SE,146,3.0,6.0,59,0.00,,,0.00,0,Wunderground v.1.15,2013-02-19 18:00:00,
2013-02-19 13:05:00,48.6,35.3,29.90,SSE,149,0.0,10.0,60,0.00,,,0.00,0,Wunderground v.1.15,2013-02-19 18:05:00,
2013-02-19 13:10:00,47.8,35.8,29.90,South,170,8.0,8.0,63,0.00,,,0.00,0,Wunderground v.1.15,2013-02-19 18:10:00,
2013-02-19 13:15:00,47.2,36.0,29.89,South,176,2.0,10.0,65,0.00,,,0.00,0,Wunderground v.1.15,2013-02-19 18:15:00,
2013-02-19 13:20:00,46.8,36.4,29.89,South,180,3.0,6.0,67,0.00,,,0.00,0,Wunderground v.1.15,2013-02-19 18:20:00,
2013-02-19 13:25:00,46.4,36.8,29.89,ESE,117,1.0,6.0,69,0.00,,,0.00,0,Wunderground v.1.15,2013-02-19 18:25:00,
2013-02-19 13:30:00,46.1,36.9,29.89,SSE,165,0.0,1.0,70,0.00,,,0.00,0,Wunderground v.1.15,2013-02-19 18:30:00,
2013-02-19 13:35:00,46.1,37.2,29.88,SE,138,7.0,7.0,71,0.00,,,0.00,0,Wunderground v.1.15,2013-02-19 18:35:00,
2013-02-19 13:40:00,46.0,37.5,29.87,SSE,162,5.0,5.0,72,0.00,,,0.00,0,Wunderground v.1.15,2013-02-19 18:40:00,
2013-02-19 13:45:00,46.1,37.6,29.87,SE,138,0.0,6.0,72,0.00,,,0.00,0,Wunderground v.1.15,2013-02-19 18:45:00,
2013-02-19 13:50:00,46.3,38.1,29.87,ESE,111,2.0,5.0,73,0.00,,,0.00,0,Wunderground v.1.15,2013-02-19 18:50:00,
2013-02-19 13:55:00,46.1,37.9,29.86,SSE,167,0.0,5.0,73,0.00,,,0.00,0,Wunderground v.1.15,2013-02-19 18:55:00,
2013-02-19 14:00:00,46.0,37.8,29.86,SSE,163,1.0,5.0,73,0.00,,,0.00,0,Wunderground v.1.15,2013-02-19 19:00:00,
2013-02-19 14:05:00,45.8,38.0,29.85,SE,133,3.0,10.0,74,0.00,,,0.00,0,Wunderground v.1.15,2013-02-19 19:05:00,
2013-02-19 14:10:00,45.6,37.8,29.85,South,175,5.0,5.0,74,0.00,,,0.00,0,Wunderground v.1.15,2013-02-19 19:10:00,
2013-02-19 14:15:00,45.5,38.0,29.85,SE,145,2.0,5.0,75,0.00,,,0.00,0,Wunderground v.1.15,2013-02-19 19:15:00,
2013-02-19 14:20:00,45.5,38.0,29.85,SE,138,5.0,5.0,75,0.00,,,0.00,0,Wunderground v.1.15,2013-02-19 19:20:00,
2013-02-19 14:25:00,45.3,37.8,29.85,SE,145,6.0,13.0,75,0.00,,,0.00,0,Wunderground v.1.15,2013-02-19 19:25:00,
2013-02-19 14:30:00,45.2,38.1,29.85,SSE,156,3.0,3.0,76,0.00,,,0.00,0,Wunderground v.1.15,2013-02-19 19:30:00,
2013-02-19 14:35:00,45.2,38.1,29.84,SSE,160,2.0,5.0,76,0.00,,,0.00,0,Wunderground v.1.15,2013-02-19 19:35:00,
2013-02-19 14:40:00,45.1,38.0,29.84,SSW,202,2.0,5.0,76,0.00,,,0.00,0,Wunderground v.1.15,2013-02-19 19:40:00,
2013-02-19 14:46:00,45.2,38.4,29.83,SSE,149,5.0,6.0,77,0.00,,,0.00,0,Wunderground v.1.15,2013-02-19 19:46:00,
2013-02-19 14:51:00,45.1,38.3,29.82,SSW,192,1.0,3.0,77,0.00,,,0.00,0,Wunderground v.1.15,2013-02-19 19:51:00,
2013-02-19 14:56:00,45.2,38.7,29.82,ESE,121,3.0,6.0,78,0.00,,,0.00,0,Wunderground v.1.15,2013-02-19 19:56:00,
2013-02-19 15:01:00,45.2,38.7,29.82,SE,145,0.0,5.0,78,0.00,,,0.00,0,Wunderground v.1.15,2013-02-19 20:01:00,
2013-02-19 15:06:00,45.2,38.7,29.81,SE,130,1.0,6.0,78,0.00,,,0.00,0,Wunderground v.1.15,2013-02-19 20:06:00,
2013-02-19 15:11:00,45.3,38.8,29.81,SE,124,2.0,5.0,78,0.00,,,0.00,0,Wunderground v.1.15,2013-02-19 20:11:00,
2013-02-19 15:16:00,45.4,38.9,29.80,ESE,120,4.0,5.0,78,0.00,,,0.00,0,Wunderground v.1.15,2013-02-19 20:16:00,
2013-02-19 15:21:00,45.5,39.4,29.79,ESE,115,3.0,6.0,79,0.00,,,0.00,0,Wunderground v.1.15,2013-02-19 20:21:00,
2013-02-19 15:26:00,45.6,39.5,29.79,SE,128,3.0,7.0,79,0.00,,,0.00,0,Wunderground v.1.15,2013-02-19 20:26:00,
2013-02-19 15:31:00,45.6,39.5,29.79,ESE,115,3.0,5.0,79,0.00,,,0.00,0,Wunderground v.1.15,2013-02-19 20:31:00,
2013-02-19 15:36:00,45.7,39.6,29.78,SE,126,2.0,5.0,79,0.00,,,0.00,0,Wunderground v.1.15,2013-02-19 20:36:00,
2013-02-19 15:41:00,45.6,39.5,29.78,South,171,6.0,6.0,79,0.00,,,0.00,0,Wunderground v.1.15,2013-02-19 20:41:00,
2013-02-19 15:46:00,45.8,39.7,29.78,SSE,156,7.0,7.0,79,0.00,,,0.00,0,Wunderground v.1.15,2013-02-19 20:46:00,
2013-02-19 15:51:00,45.9,39.8,29.78,South,177,7.0,7.0,79,0.00,,,0.00,0,Wunderground v.1.15,2013-02-19 20:51:00,
2013-02-19 15:56:00,45.9,39.8,29.77,ENE,67,2.0,7.0,79,0.00,,,0.00,0,Wunderground v.1.15,2013-02-19 20:56:00,
2013-02-19 16:01:00,46.0,40.2,29.77,South,182,5.0,9.0,80,0.00,,,0.00,0,Wunderground v.1.15,2013-02-19 21:01:00,
2013-02-19 16:06:00,46.1,40.3,29.76,SSE,154,1.0,12.0,80,0.00,,,0.00,0,Wunderground v.1.15,2013-02-19 21:06:00,
2013-02-19 16:11:00,46.2,40.4,29.76,South,191,2.0,6.0,80,0.00,,,0.00,0,Wunderground v.1.15,2013-02-19 21:11:00,
2013-02-19 16:16:00,46.2,40.4,29.76,SE,143,2.0,6.0,80,0.00,,,0.00,0,Wunderground v.1.15,2013-02-19 21:16:00,
2013-02-19 16:21:00,46.3,40.8,29.75,SE,139,4.0,8.0,81,0.00,,,0.00,0,Wunderground v.1.15,2013-02-19 21:21:00,
2013-02-19 16:26:00,46.2,40.7,29.75,SSW,209,4.0,9.0,81,0.00,,,0.00,0,Wunderground v.1.15,2013-02-19 21:26:00,
2013-02-19 16:31:00,46.2,40.7,29.75,South,172,4.0,7.0,81,0.00,,,0.00,0,Wunderground v.1.15,2013-02-19 21:31:00,
2013-02-19 16:36:00,46.2,40.7,29.74,ESE,112,7.0,12.0,81,0.00,,,0.00,0,Wunderground v.1.15,2013-02-19 21:36:00,
2013-02-19 16:41:00,46.1,40.6,29.74,SSW,197,1.0,3.0,81,0.00,,,0.00,0,Wunderground v.1.15,2013-02-19 21:41:00,
2013-02-19 16:46:00,46.1,40.6,29.73,SSW,198,3.0,10.0,81,0.00,,,0.00,0,Wunderground v.1.15,2013-02-19 21:46:00,
2013-02-19 16:51:00,46.1,40.6,29.74,ESE,114,3.0,7.0,81,0.00,,,0.00,0,Wunderground v.1.15,2013-02-19 21:51:00,
2013-02-19 16:56:00,46.1,40.6,29.73,SSW,194,4.0,10.0,81,0.00,,,0.00,0,Wunderground v.1.15,2013-02-19 21:56:00,
2013-02-19 17:01:00,46.1,40.6,29.73,SSE,155,3.0,5.0,81,0.00,,,0.00,0,Wunderground v.1.15,2013-02-19 22:01:00,
2013-02-19 17:06:00,46.2,41.0,29.73,SSW,210,4.0,13.0,82,0.00,,,0.00,0,Wunderground v.1.15,2013-02-19 22:06:00,
2013-02-19 17:11:00,46.3,41.1,29.72,South,173,2.0,2.0,82,0.00,,,0.00,0,Wunderground v.1.15,2013-02-19 22:11:00,
2013-02-19 17:16:00,46.5,41.3,29.72,SSW,198,8.0,11.0,82,0.00,,,0.00,0,Wunderground v.1.15,2013-02-19 22:16:00,
2013-02-19 17:21:00,46.6,41.4,29.72,SSW,213,2.0,8.0,82,0.00,,,0.00,0,Wunderground v.1.15,2013-02-19 22:21:00,
2013-02-19 17:26:00,46.7,41.5,29.72,SSE,148,5.0,12.0,82,0.00,,,0.00,0,Wunderground v.1.15,2013-02-19 22:26:00,
2013-02-19 17:31:00,46.9,41.7,29.72,South,183,10.0,12.0,82,0.00,,,0.00,0,Wunderground v.1.15,2013-02-19 22:31:00,
2013-02-19 17:36:00,47.1,41.9,29.72,SSW,195,7.0,15.0,82,0.00,,,0.00,0,Wunderground v.1.15,2013-02-19 22:36:00,
2013-02-19 17:41:00,47.3,42.1,29.71,South,175,8.0,9.0,82,0.00,,,0.00,0,Wunderground v.1.15,2013-02-19 22:41:00,
2013-02-19 17:46:00,47.4,42.2,29.71,South,186,8.0,10.0,82,0.00,,,0.00,0,Wunderground v.1.15,2013-02-19 22:46:00,
2013-02-19 17:51:00,47.5,42.3,29.71,South,190,1.0,9.0,82,0.00,,,0.00,0,Wunderground v.1.15,2013-02-19 22:51:00,
2013-02-19 17:56:00,47.6,42.4,29.70,SW,233,3.0,12.0,82,0.00,,,0.00,0,Wunderground v.1.15,2013-02-19 22:56:00,
2013-02-19 18:01:00,47.5,42.3,29.70,SE,142,4.0,10.0,82,0.00,,,0.00,0,Wunderground v.1.15,2013-02-19 23:01:00,
2013-02-19 18:06:00,47.6,42.4,29.71,SSW,207,2.0,10.0,82,0.00,,,0.00,0,Wunderground v.1.15,2013-02-19 23:06:00,
2013-02-19 18:11:00,47.6,42.4,29.71,South,191,3.0,5.0,82,0.00,,,0.00,0,Wunderground v.1.15,2013-02-19 23:11:00,
2013-02-19 18:16:00,47.6,42.7,29.71,SE,142,4.0,8.0,83,0.00,,,0.00,0,Wunderground v.1.15,2013-02-19 23:16:00,
2013-02-19 18:21:00,47.6,42.7,29.71,SW,235,3.0,7.0,83,0.00,,,0.00,0,Wunderground v.1.15,2013-02-19 23:21:00,
2013-02-19 18:26:00,47.5,42.6,29.71,SW,230,1.0,7.0,83,0.00,,,0.00,0,Wunderground v.1.15,2013-02-19 23:26:00,
2013-02-19 18:31:00,47.6,42.7,29.71,SSE,156,1.0,7.0,83,0.00,,,0.00,0,Wunderground v.1.15,2013-02-19 23:31:00,
2013-02-19 18:36:00,47.6,42.7,29.71,SSE,152,0.0,7.0,83,0.00,,,0.00,0,Wunderground v.1.15,2013-02-19 23:36:00,
2013-02-19 18:41:00,47.6,42.7,29.71,WSW,255,2.0,7.0,83,0.00,,,0.00,0,Wunderground v.1.15,2013-02-19 23:41:00,
2013-02-19 18:46:00,47.6,42.7,29.70,WSW,256,0.0,7.0,83,0.00,,,0.00,0,Wunderground v.1.15,2013-02-19 23:46:00,
2013-02-19 18:51:00,47.5,42.6,29.70,WSW,255,0.0,1.0,83,0.00,,,0.00,0,Wunderground v.1.15,2013-02-19 23:51:00,
2013-02-19 18:56:00,47.5,42.6,29.69,WSW,256,2.0,3.0,83,0.00,,,0.00,0,Wunderground v.1.15,2013-02-19 23:56:00,
2013-02-19 19:01:00,47.5,42.6,29.69,WSW,256,2.0,3.0,83,0.00,,,0.00,0,Wunderground v.1.15,2013-02-20 00:01:00,
2013-02-19 19:06:00,47.4,42.5,29.69,WSW,256,3.0,3.0,83,0.00,,,0.00,0,Wunderground v.1.15,2013-02-20 00:06:00,
2013-02-19 19:11:00,47.4,42.5,29.68,WSW,253,0.0,3.0,83,0.00,,,0.00,0,Wunderground v.1.15,2013-02-20 00:11:00,
2013-02-19 19:16:00,47.3,42.4,29.68,WSW,243,2.0,4.0,83,0.00,,,0.00,0,Wunderground v.1.15,2013-02-20 00:16:00,
2013-02-19 19:21:00,47.4,42.5,29.69,SW,234,1.0,3.0,83,0.00,,,0.00,0,Wunderground v.1.15,2013-02-20 00:21:00,
2013-02-19 19:26:00,47.3,42.4,29.69,SW,234,0.0,3.0,83,0.00,,,0.00,0,Wunderground v.1.15,2013-02-20 00:26:00,
2013-02-19 19:31:00,47.3,42.4,29.69,South,173,1.0,5.0,83,0.00,,,0.00,0,Wunderground v.1.15,2013-02-20 00:31:00,
2013-02-19 19:36:00,47.3,42.7,29.69,SSE,160,1.0,5.0,84,0.00,,,0.00,0,Wunderground v.1.15,2013-02-20 00:36:00,
2013-02-19 19:41:00,47.3,42.7,29.69,West,266,3.0,5.0,84,0.00,,,0.00,0,Wunderground v.1.15,2013-02-20 00:41:00,
2013-02-19 19:46:00,47.3,42.7,29.69,SSW,197,1.0,5.0,84,0.00,,,0.00,0,Wunderground v.1.15,2013-02-20 00:46:00,
2013-02-19 19:51:00,47.2,42.6,29.69,SSW,194,4.0,7.0,84,0.00,,,0.00,0,Wunderground v.1.15,2013-02-20 00:51:00,
2013-02-19 19:56:00,47.2,42.6,29.68,West,280,2.0,7.0,84,0.00,,,0.00,0,Wunderground v.1.15,2013-02-20 00:56:00,
2013-02-19 20:01:00,47.1,42.5,29.68,SSW,201,2.0,3.0,84,0.00,,,0.00,0,Wunderground v.1.15,2013-02-20 01:01:00,
2013-02-19 20:06:00,47.2,42.6,29.68,West,269,4.0,6.0,84,0.00,,,0.00,0,Wunderground v.1.15,2013-02-20 01:06:00,
2013-02-19 20:12:00,47.1,42.5,29.69,West,279,6.0,8.0,84,0.00,,,0.00,0,Wunderground v.1.15,2013-02-20 01:12:00,
2013-02-19 20:17:00,46.9,42.0,29.69,SSW,203,2.0,11.0,83,0.00,,,0.00,0,Wunderground v.1.15,2013-02-20 01:17:00,
2013-02-19 20:22:00,46.8,41.9,29.69,NE,45,2.0,5.0,83,0.00,,,0.00,0,Wunderground v.1.15,2013-02-20 01:22:00,
2013-02-19 20:27:00,46.4,41.5,29.69,NNW,344,2.0,8.0,83,0.00,,,0.00,0,Wunderground v.1.15,2013-02-20 01:27:00,
2013-02-19 20:32:00,46.1,40.9,29.70,WNW,292,2.0,6.0,82,0.00,,,0.00,0,Wunderground v.1.15,2013-02-20 01:32:00,
2013-02-19 20:37:00,45.7,40.5,29.69,NW,324,3.0,7.0,82,0.00,,,0.00,0,Wunderground v.1.15,2013-02-20 01:37:00,
2013-02-19 20:42:00,45.5,40.3,29.70,NW,315,2.0,11.0,82,0.00,,,0.00,0,Wunderground v.1.15,2013-02-20 01:42:00,
2013-02-19 20:47:00,45.4,40.2,29.70,NNW,337,2.0,11.0,82,0.00,,,0.00,0,Wunderground v.1.15,2013-02-20 01:47:00,
2013-02-19 20:52:00,45.2,40.0,29.70,WNW,290,3.0,5.0,82,0.00,,,0.00,0,Wunderground v.1.15,2013-02-20 01:52:00,
2013-02-19 20:57:00,44.9,39.7,29.70,WNW,282,3.0,12.0,82,0.00,,,0.00,0,Wunderground v.1.15,2013-02-20 01:57:00,
2013-02-19 21:02:00,44.8,39.6,29.70,NNW,336,4.0,4.0,82,0.00,,,0.00,0,Wunderground v.1.15,2013-02-20 02:02:00,
2013-02-19 21:07:00,44.5,39.3,29.70,WSW,258,2.0,6.0,82,0.00,,,0.00,0,Wunderground v.1.15,2013-02-20 02:07:00,
2013-02-19 21:12:00,44.4,39.2,29.70,WNW,282,5.0,8.0,82,0.00,,,0.00,0,Wunderground v.1.15,2013-02-20 02:12:00,
2013-02-19 21:17:00,44.3,38.8,29.70,West,260,1.0,8.0,81,0.00,,,0.00,0,Wunderground v.1.15,2013-02-20 02:17:00,
2013-02-19 21:22:00,44.0,38.9,29.71,SW,214,2.0,4.0,82,0.00,,,0.00,0,Wunderground v.1.15,2013-02-20 02:22:00,
2013-02-19 21:27:00,43.7,38.3,29.71,WNW,302,4.0,8.0,81,0.00,,,0.00,0,Wunderground v.1.15,2013-02-20 02:27:00,
2013-02-19 21:32:00,43.4,38.0,29.71,WSW,255,2.0,10.0,81,0.00,,,0.00,0,Wunderground v.1.15,2013-02-20 02:32:00,
2013-02-19 21:37:00,43.2,37.8,29.72,SW,235,0.0,10.0,81,0.00,,,0.00,0,Wunderground v.1.15,2013-02-20 02:37:00,
2013-02-19 21:42:00,42.9,37.5,29.72,NW,304,4.0,7.0,81,0.00,,,0.00,0,Wunderground v.1.15,2013-02-20 02:42:00,
2013-02-19 21:47:00,42.8,37.4,29.72,WSW,237,6.0,11.0,81,0.00,,,0.00,0,Wunderground v.1.15,2013-02-20 02:47:00,
2013-02-19 21:52:00,42.8,37.1,29.72,West,262,6.0,14.0,80,0.00,,,0.00,0,Wunderground v.1.15,2013-02-20 02:52:00,
2013-02-19 21:57:00,42.5,36.4,29.72,West,278,1.0,14.0,79,0.00,,,0.00,0,Wunderground v.1.15,2013-02-20 02:57:00,
2013-02-19 22:02:00,42.6,36.5,29.73,NNW,331,2.0,11.0,79,0.00,,,0.00,0,Wunderground v.1.15,2013-02-20 03:02:00,
2013-02-19 22:07:00,42.3,35.9,29.73,NW,308,3.0,12.0,78,0.00,,,0.00,0,Wunderground v.1.15,2013-02-20 03:07:00,
2013-02-19 22:12:00,42.2,35.5,29.73,WNW,282,4.0,8.0,77,0.00,,,0.00,0,Wunderground v.1.15,2013-02-20 03:12:00,
2013-02-19 22:17:00,42.1,35.1,29.73,WNW,299,6.0,11.0,76,0.00,,,0.00,0,Wunderground v.1.15,2013-02-20 03:17:00,
2013-02-19 22:23:00,42.1,35.1,29.73,WNW,282,3.0,7.0,76,0.00,,,0.00,0,Wunderground v.1.15,2013-02-20 03:23:00,
2013-02-19 22:28:00,42.0,34.6,29.73,NW,311,13.0,21.0,75,0.00,,,0.00,0,Wunderground v.1.15,2013-02-20 03:28:00,
2013-02-19 22:34:00,42.0,34.6,29.73,NNE,15,11.0,11.0,75,0.00,,,0.00,0,Wunderground v.1.15,2013-02-20 03:34:00,
2013-02-19 22:39:00,41.7,34.0,29.73,NW,307,9.0,20.0,74,0.00,,,0.00,0,Wunderground v.1.15,2013-02-20 03:39:00,
2013-02-19 22:44:00,41.6,33.6,29.73,NW,316,3.0,11.0,73,0.00,,,0.00,0,Wunderground v.1.15,2013-02-20 03:44:00,
2013-02-19 22:49:00,41.4,33.0,29.73,NW,325,5.0,14.0,72,0.00,,,0.00,0,Wunderground v.1.15,2013-02-20 03:49:00,
2013-02-19 22:54:00,41.3,32.6,29.73,West,280,5.0,12.0,71,0.00,,,0.00,0,Wunderground v.1.15,2013-02-20 03:54:00,
2013-02-19 22:59:00,41.2,32.2,29.74,West,281,7.0,16.0,70,0.00,,,0.00,0,Wunderground v.1.15,2013-02-20 03:59:00,
2013-02-19 23:04:00,41.2,31.8,29.74,NNE,13,2.0,15.0,69,0.00,,,0.00,0,Wunderground v.1.15,2013-02-20 04:04:00,
2013-02-19 23:09:00,41.3,31.5,29.74,WNW,301,1.0,15.0,68,0.00,,,0.00,0,Wunderground v.1.15,2013-02-20 04:09:00,
2013-02-19 23:14:00,40.9,31.1,29.74,WNW,292,6.0,14.0,68,0.00,,,0.00,0,Wunderground v.1.15,2013-02-20 04:14:00,
2013-02-19 23:19:00,40.7,30.6,29.74,WSW,251,6.0,16.0,67,0.00,,,0.00,0,Wunderground v.1.15,2013-02-20 04:19:00,
2013-02-19 23:24:00,40.6,29.7,29.75,WNW,282,5.0,15.0,65,0.00,,,0.00,0,Wunderground v.1.15,2013-02-20 04:24:00,
2013-02-19 23:29:00,40.5,29.7,29.75,WNW,295,5.0,15.0,65,0.00,,,0.00,0,Wunderground v.1.15,2013-02-20 04:29:00,
2013-02-19 23:34:00,40.1,28.9,29.75,North,355,4.0,10.0,64,0.00,,,0.00,0,Wunderground v.1.15,2013-02-20 04:34:00,
2013-02-19 23:39:00,39.7,28.1,29.74,WSW,253,2.0,10.0,63,0.00,,,0.00,0,Wunderground v.1.15,2013-02-20 04:39:00,
2013-02-19 23:45:00,39.5,27.9,29.75,NNW,342,4.0,9.0,63,0.00,,,0.00,0,Wunderground v.1.15,2013-02-20 04:45:00,
2013-02-19 23:50:00,39.2,28.0,29.75,NW,313,3.0,7.0,64,0.00,,,0.00,0,Wunderground v.1.15,2013-02-20 04:50:00,
2013-02-19 23:55:00,39.1,27.6,29.75,NW,305,7.0,13.0,63,0.00,,,0.00,0,Wunderground v.1.15,2013-02-20 04:55:00,